Time,TemperatureF,DewpointF,PressureIn,WindDirection,WindDirectionDegrees,WindSpeedMPH,WindSpeedGustMPH,Humidity,HourlyPrecipIn,Conditions,Clouds,dailyrainin,SoftwareType,DateUTC
2013-03-07 00:00:00,34.7,27.9,30.13,NNW,343,0.0,1.0,76,0.00,,---,0.00,VWS V14.00,2013-03-07 05:00:00,
2013-03-07 00:05:00,34.6,27.8,30.14,NNW,343,0.0,1.0,76,0.00,,---,0.00,VWS V14.00,2013-03-07 05:05:00,
2013-03-07 00:10:00,34.6,28.1,30.13,NNW,343,0.0,2.0,77,0.00,,---,0.00,VWS V14.00,2013-03-07 05:10:00,
2013-03-07 00:15:00,34.5,28.0,30.13,NNW,343,0.0,4.0,77,0.00,,---,0.00,VWS V14.00,2013-03-07 05:15:00,
2013-03-07 00:20:00,34.4,28.0,30.13,NNW,343,1.0,4.0,77,0.00,,---,0.00,VWS V14.00,2013-03-07 05:20:00,
2013-03-07 00:25:00,34.3,27.9,30.13,NNW,343,0.0,4.0,77,0.00,,---,0.00,VWS V14.00,2013-03-07 05:25:00,
2013-03-07 00:30:00,34.2,27.8,30.13,NNW,343,0.0,0.0,77,0.00,,---,0.00,VWS V14.00,2013-03-07 05:30:00,
2013-03-07 00:35:00,34.0,27.6,30.13,NNW,343,0.0,0.0,77,0.00,,---,0.00,VWS V14.00,2013-03-07 05:35:00,
2013-03-07 00:40:00,33.8,27.7,30.13,NNW,343,0.0,1.0,78,0.00,,---,0.00,VWS V14.00,2013-03-07 05:40:00,
2013-03-07 00:45:00,33.7,27.6,30.14,NNW,343,0.0,2.0,78,0.00,,---,0.00,VWS V14.00,2013-03-07 05:45:00,
2013-03-07 00:50:00,33.7,27.6,30.14,NNW,343,0.0,2.0,78,0.00,,---,0.00,VWS V14.00,2013-03-07 05:50:00,
2013-03-07 00:55:00,33.6,27.8,30.15,NNW,343,1.0,2.0,79,0.00,,---,0.00,VWS V14.00,2013-03-07 05:55:00,
2013-03-07 01:00:00,33.6,27.8,30.15,NNW,343,0.0,2.0,79,0.00,,---,0.00,VWS V14.00,2013-03-07 06:00:00,
2013-03-07 01:05:00,33.5,27.7,30.15,NNW,343,0.0,2.0,79,0.00,,---,0.00,VWS V14.00,2013-03-07 06:05:00,
2013-03-07 01:10:00,33.3,27.5,30.14,NNW,343,0.0,2.0,79,0.00,,---,0.00,VWS V14.00,2013-03-07 06:10:00,
2013-03-07 01:15:00,33.1,27.3,30.14,NNW,343,0.0,2.0,79,0.00,,---,0.00,VWS V14.00,2013-03-07 06:15:00,
2013-03-07 01:20:00,32.9,27.1,30.14,NNW,343,0.0,2.0,79,0.00,,---,0.00,VWS V14.00,2013-03-07 06:20:00,
2013-03-07 01:25:00,32.7,26.9,30.14,NNW,343,0.0,2.0,79,0.00,,---,0.00,VWS V14.00,2013-03-07 06:25:00,
2013-03-07 01:30:00,32.4,26.9,30.15,NNW,343,0.0,0.0,80,0.00,,---,0.00,VWS V14.00,2013-03-07 06:30:00,
2013-03-07 01:35:00,32.2,26.7,30.15,NNW,343,0.0,0.0,80,0.00,,---,0.00,VWS V14.00,2013-03-07 06:35:00,
2013-03-07 01:40:00,32.0,27.1,30.15,NNW,343,0.0,1.0,82,0.00,,---,0.00,VWS V14.00,2013-03-07 06:40:00,
2013-03-07 01:45:00,32.0,27.1,30.15,NNW,343,0.0,1.0,82,0.00,,---,0.00,VWS V14.00,2013-03-07 06:45:00,
2013-03-07 01:50:00,31.8,26.9,30.15,NNW,343,0.0,1.0,82,0.00,,---,0.00,VWS V14.00,2013-03-07 06:50:00,
2013-03-07 01:55:00,31.7,26.8,30.15,NNW,343,0.0,1.0,82,0.00,,---,0.00,VWS V14.00,2013-03-07 06:55:00,
2013-03-07 02:00:00,31.5,26.6,30.15,NNW,343,0.0,0.0,82,0.00,,---,0.00,VWS V14.00,2013-03-07 07:00:00,
2013-03-07 02:05:00,31.4,26.8,30.15,NNW,343,0.0,0.0,83,0.00,,---,0.00,VWS V14.00,2013-03-07 07:05:00,
2013-03-07 02:10:00,31.3,26.8,30.16,NNW,343,0.0,0.0,83,0.00,,---,0.00,VWS V14.00,2013-03-07 07:10:00,
2013-03-07 02:15:00,31.2,26.9,30.16,NNW,343,0.0,1.0,84,0.00,,---,0.00,VWS V14.00,2013-03-07 07:15:00,
2013-03-07 02:20:00,31.2,26.9,30.16,NNW,343,0.0,1.0,84,0.00,,---,0.00,VWS V14.00,2013-03-07 07:20:00,
2013-03-07 02:25:00,31.1,26.8,30.14,NNW,343,0.0,0.0,84,0.00,,---,0.00,VWS V14.00,2013-03-07 07:25:00,
2013-03-07 02:30:00,31.1,26.8,30.15,NNW,343,0.0,0.0,84,0.00,,---,0.00,VWS V14.00,2013-03-07 07:30:00,
2013-03-07 02:35:00,31.0,26.7,30.16,NNW,343,0.0,1.0,84,0.00,,---,0.00,VWS V14.00,2013-03-07 07:35:00,
2013-03-07 02:40:00,30.9,26.6,30.16,NNW,343,0.0,1.0,84,0.00,,---,0.00,VWS V14.00,2013-03-07 07:40:00,
2013-03-07 02:45:00,30.7,26.7,30.15,NNW,343,0.0,1.0,85,0.00,,---,0.00,VWS V14.00,2013-03-07 07:45:00,
2013-03-07 02:50:00,30.6,26.4,30.15,NNW,343,0.0,1.0,84,0.00,,---,0.00,VWS V14.00,2013-03-07 07:50:00,
2013-03-07 02:55:00,30.5,26.5,30.15,NNW,343,0.0,1.0,85,0.00,,---,0.00,VWS V14.00,2013-03-07 07:55:00,
2013-03-07 03:00:00,30.3,26.3,30.15,NNW,343,0.0,0.0,85,0.00,,---,0.00,VWS V14.00,2013-03-07 08:00:00,
2013-03-07 03:05:00,30.2,26.2,30.15,NNW,343,0.0,0.0,85,0.00,,---,0.00,VWS V14.00,2013-03-07 08:05:00,
2013-03-07 03:10:00,30.1,26.4,30.15,NNW,343,0.0,0.0,86,0.00,,---,0.00,VWS V14.00,2013-03-07 08:10:00,
2013-03-07 03:15:00,29.9,26.2,30.15,NNW,343,0.0,0.0,86,0.00,,---,0.00,VWS V14.00,2013-03-07 08:15:00,
2013-03-07 03:20:00,29.9,26.2,30.15,NNW,343,0.0,0.0,86,0.00,,---,0.00,VWS V14.00,2013-03-07 08:20:00,
2013-03-07 03:25:00,29.8,26.1,30.15,NNW,343,0.0,0.0,86,0.00,,---,0.00,VWS V14.00,2013-03-07 08:25:00,
2013-03-07 03:30:00,29.8,26.1,30.15,NNW,343,0.0,0.0,86,0.00,,---,0.00,VWS V14.00,2013-03-07 08:30:00,
2013-03-07 03:35:00,29.7,26.0,30.15,NNW,343,0.0,0.0,86,0.00,,---,0.00,VWS V14.00,2013-03-07 08:35:00,
2013-03-07 03:40:00,29.7,26.3,30.15,NNW,343,0.0,0.0,87,0.00,,---,0.00,VWS V14.00,2013-03-07 08:40:00,
2013-03-07 03:45:00,29.7,26.3,30.15,NNW,343,0.0,0.0,87,0.00,,---,0.00,VWS V14.00,2013-03-07 08:45:00,
2013-03-07 03:50:00,29.7,26.3,30.15,NNW,343,0.0,0.0,87,0.00,,---,0.00,VWS V14.00,2013-03-07 08:50:00,
2013-03-07 03:55:00,29.6,26.2,30.15,NNW,343,0.0,0.0,87,0.00,,---,0.00,VWS V14.00,2013-03-07 08:55:00,
2013-03-07 04:00:00,29.6,26.2,30.15,NNW,343,0.0,0.0,87,0.00,,---,0.00,VWS V14.00,2013-03-07 09:00:00,
2013-03-07 04:05:00,29.4,26.0,30.15,NNW,343,0.0,0.0,87,0.00,,---,0.00,VWS V14.00,2013-03-07 09:05:00,
2013-03-07 04:10:00,29.4,26.0,30.16,NNW,343,0.0,0.0,87,0.00,,---,0.00,VWS V14.00,2013-03-07 09:10:00,
2013-03-07 04:15:00,29.3,25.9,30.16,NNW,343,0.0,0.0,87,0.00,,---,0.00,VWS V14.00,2013-03-07 09:15:00,
2013-03-07 04:20:00,29.3,25.9,30.16,NNW,343,0.0,0.0,87,0.00,,---,0.00,VWS V14.00,2013-03-07 09:20:00,
2013-03-07 04:25:00,29.2,25.8,30.17,NNW,343,0.0,0.0,87,0.00,,---,0.00,VWS V14.00,2013-03-07 09:25:00,
2013-03-07 04:30:00,29.2,26.1,30.17,NNW,343,0.0,0.0,88,0.00,,---,0.00,VWS V14.00,2013-03-07 09:30:00,
2013-03-07 04:35:00,29.1,26.0,30.17,NNW,343,0.0,0.0,88,0.00,,---,0.00,VWS V14.00,2013-03-07 09:35:00,
2013-03-07 04:40:00,29.1,26.0,30.17,NNW,343,0.0,0.0,88,0.00,,---,0.00,VWS V14.00,2013-03-07 09:40:00,
2013-03-07 04:45:00,29.0,25.6,30.17,NNW,343,0.0,0.0,87,0.00,,---,0.00,VWS V14.00,2013-03-07 09:45:00,
2013-03-07 04:50:00,28.8,25.4,30.17,NNW,343,0.0,0.0,87,0.00,,---,0.00,VWS V14.00,2013-03-07 09:50:00,
2013-03-07 04:55:00,28.8,25.7,30.18,NNW,343,0.0,0.0,88,0.00,,---,0.00,VWS V14.00,2013-03-07 09:55:00,
2013-03-07 05:00:00,28.8,25.7,30.18,NNW,343,1.0,1.0,88,0.00,,---,0.00,VWS V14.00,2013-03-07 10:00:00,
2013-03-07 05:05:00,28.8,26.0,30.19,NNW,343,0.0,1.0,89,0.00,,---,0.00,VWS V14.00,2013-03-07 10:05:00,
2013-03-07 05:10:00,28.8,26.0,30.20,NNW,343,0.0,1.0,89,0.00,,---,0.00,VWS V14.00,2013-03-07 10:10:00,
2013-03-07 05:15:00,28.8,26.0,30.20,NNW,343,0.0,1.0,89,0.00,,---,0.00,VWS V14.00,2013-03-07 10:15:00,
2013-03-07 05:20:00,28.8,25.7,30.19,NNW,343,0.0,1.0,88,0.00,,---,0.00,VWS V14.00,2013-03-07 10:20:00,
2013-03-07 05:25:00,28.7,25.6,30.19,NNW,343,0.0,1.0,88,0.00,,---,0.00,VWS V14.00,2013-03-07 10:25:00,
2013-03-07 05:30:00,28.7,25.6,30.19,NNW,343,0.0,0.0,88,0.00,,---,0.00,VWS V14.00,2013-03-07 10:30:00,
2013-03-07 05:35:00,28.6,25.5,30.19,NNW,343,0.0,0.0,88,0.00,,---,0.00,VWS V14.00,2013-03-07 10:35:00,
2013-03-07 05:40:00,28.5,25.4,30.20,NNW,343,0.0,0.0,88,0.00,,---,0.00,VWS V14.00,2013-03-07 10:40:00,
2013-03-07 05:45:00,28.4,25.6,30.20,NNW,343,0.0,0.0,89,0.00,,---,0.00,VWS V14.00,2013-03-07 10:45:00,
2013-03-07 05:50:00,28.3,25.5,30.20,NNW,343,0.0,0.0,89,0.00,,---,0.00,VWS V14.00,2013-03-07 10:50:00,
2013-03-07 05:55:00,28.2,25.4,30.20,NNW,343,0.0,0.0,89,0.00,,---,0.00,VWS V14.00,2013-03-07 10:55:00,
2013-03-07 06:00:00,28.2,25.4,30.20,NNW,343,0.0,0.0,89,0.00,,---,0.00,VWS V14.00,2013-03-07 11:00:00,
2013-03-07 06:05:00,28.2,25.4,30.21,NNW,343,0.0,0.0,89,0.00,,---,0.00,VWS V14.00,2013-03-07 11:05:00,
2013-03-07 06:10:00,28.2,25.4,30.21,NNW,343,0.0,0.0,89,0.00,,---,0.00,VWS V14.00,2013-03-07 11:10:00,
2013-03-07 06:15:00,28.1,25.3,30.21,NNW,343,0.0,1.0,89,0.00,,---,0.00,VWS V14.00,2013-03-07 11:15:00,
2013-03-07 06:20:00,28.2,25.6,30.21,NNW,343,0.0,1.0,90,0.00,,---,0.00,VWS V14.00,2013-03-07 11:20:00,
2013-03-07 06:25:00,28.3,25.8,30.22,NNW,343,0.0,1.0,90,0.00,,---,0.00,VWS V14.00,2013-03-07 11:25:00,
2013-03-07 06:31:00,28.3,25.5,30.22,NNW,343,0.0,0.0,89,0.00,,---,0.00,VWS V14.00,2013-03-07 11:31:00,
2013-03-07 06:36:00,28.2,25.4,30.22,NNW,343,0.0,0.0,89,0.00,,---,0.00,VWS V14.00,2013-03-07 11:36:00,
2013-03-07 06:40:00,28.2,25.4,30.22,NNW,343,0.0,0.0,89,0.00,,---,0.00,VWS V14.00,2013-03-07 11:40:00,
2013-03-07 06:46:00,28.2,25.6,30.21,NNW,343,0.0,0.0,90,0.00,,---,0.00,VWS V14.00,2013-03-07 11:46:00,
2013-03-07 06:51:00,28.1,25.5,30.21,NNW,343,0.0,0.0,90,0.00,,---,0.00,VWS V14.00,2013-03-07 11:51:00,
2013-03-07 06:56:00,28.0,25.2,30.21,NNW,343,0.0,0.0,89,0.00,,---,0.00,VWS V14.00,2013-03-07 11:56:00,
2013-03-07 07:01:00,28.0,25.2,30.20,NNW,343,0.0,0.0,89,0.00,,---,0.00,VWS V14.00,2013-03-07 12:01:00,
2013-03-07 07:06:00,27.9,25.1,30.21,NNW,343,0.0,0.0,89,0.00,,---,0.00,VWS V14.00,2013-03-07 12:06:00,
2013-03-07 07:11:00,27.9,25.4,30.22,NNW,343,0.0,0.0,90,0.00,,---,0.00,VWS V14.00,2013-03-07 12:11:00,
2013-03-07 07:16:00,28.0,25.5,30.22,NNW,343,0.0,0.0,90,0.00,,---,0.00,VWS V14.00,2013-03-07 12:16:00,
2013-03-07 07:20:00,28.1,25.5,30.22,NNW,343,0.0,0.0,90,0.00,,---,0.00,VWS V14.00,2013-03-07 12:20:00,
2013-03-07 07:25:00,28.3,26.0,30.22,NNW,343,0.0,0.0,91,0.00,,---,0.00,VWS V14.00,2013-03-07 12:25:00,
2013-03-07 07:30:00,28.7,26.4,30.22,NNW,343,0.0,0.0,91,0.00,,---,0.00,VWS V14.00,2013-03-07 12:30:00,
2013-03-07 07:36:00,29.3,27.3,30.22,NNW,343,0.0,0.0,92,0.00,,---,0.00,VWS V14.00,2013-03-07 12:36:00,
2013-03-07 07:41:00,30.0,28.0,30.23,NNW,343,0.0,0.0,92,0.00,,---,0.00,VWS V14.00,2013-03-07 12:41:00,
2013-03-07 07:46:00,30.8,28.5,30.23,NNW,343,0.0,1.0,91,0.00,,---,0.00,VWS V14.00,2013-03-07 12:46:00,
2013-03-07 07:51:00,31.6,29.0,30.23,NNW,343,0.0,1.0,90,0.00,,---,0.00,VWS V14.00,2013-03-07 12:51:00,
2013-03-07 07:56:00,32.3,29.4,30.23,NNW,343,0.0,1.0,89,0.00,,---,0.00,VWS V14.00,2013-03-07 12:56:00,
2013-03-07 08:01:00,32.9,29.7,30.23,NNW,343,0.0,1.0,88,0.00,,---,0.00,VWS V14.00,2013-03-07 13:01:00,
2013-03-07 08:06:00,33.5,30.0,30.23,NNW,343,0.0,1.0,87,0.00,,---,0.00,VWS V14.00,2013-03-07 13:06:00,
2013-03-07 08:11:00,34.2,30.2,30.23,NNW,343,0.0,2.0,85,0.00,,---,0.00,VWS V14.00,2013-03-07 13:11:00,
2013-03-07 08:16:00,34.6,30.3,30.23,NNW,343,0.0,4.0,84,0.00,,---,0.00,VWS V14.00,2013-03-07 13:16:00,
2013-03-07 08:21:00,35.0,30.4,30.23,NNW,343,0.0,4.0,83,0.00,,---,0.00,VWS V14.00,2013-03-07 13:21:00,
2013-03-07 08:26:00,35.5,30.9,30.24,NNW,344,4.0,5.0,83,0.00,,---,0.00,VWS V14.00,2013-03-07 13:26:00,
2013-03-07 08:31:00,35.9,31.0,30.23,North,360,3.0,3.0,82,0.00,,---,0.00,VWS V14.00,2013-03-07 13:31:00,
2013-03-07 08:36:00,36.2,30.6,30.24,North,9,0.0,4.0,80,0.00,,---,0.00,VWS V14.00,2013-03-07 13:36:00,
2013-03-07 08:41:00,36.7,30.8,30.24,North,5,3.0,4.0,79,0.00,,---,0.00,VWS V14.00,2013-03-07 13:41:00,
2013-03-07 08:46:00,36.9,30.7,30.24,North,5,0.0,4.0,78,0.00,,---,0.00,VWS V14.00,2013-03-07 13:46:00,
2013-03-07 08:51:00,37.4,30.9,30.24,North,5,3.0,4.0,77,0.00,,---,0.00,VWS V14.00,2013-03-07 13:51:00,
2013-03-07 08:56:00,37.9,31.7,30.24,North,5,0.0,4.0,78,0.00,,---,0.00,VWS V14.00,2013-03-07 13:56:00,
2013-03-07 09:01:00,38.4,31.2,30.25,North,355,0.0,6.0,75,0.00,,---,0.00,VWS V14.00,2013-03-07 14:01:00,
2013-03-07 09:06:00,38.8,31.6,30.25,North,355,1.0,6.0,75,0.00,,---,0.00,VWS V14.00,2013-03-07 14:06:00,
2013-03-07 09:11:00,39.2,31.6,30.25,North,355,2.0,6.0,74,0.00,,---,0.00,VWS V14.00,2013-03-07 14:11:00,
2013-03-07 09:16:00,39.6,31.3,30.25,North,5,4.0,6.0,72,0.00,,---,0.00,VWS V14.00,2013-03-07 14:16:00,
2013-03-07 09:21:00,39.7,31.4,30.25,North,5,0.0,6.0,72,0.00,,---,0.00,VWS V14.00,2013-03-07 14:21:00,
2013-03-07 09:26:00,40.3,31.7,30.25,North,360,1.0,6.0,71,0.00,,---,0.00,VWS V14.00,2013-03-07 14:26:00,
2013-03-07 09:31:00,40.9,31.9,30.25,North,360,1.0,3.0,70,0.00,,---,0.00,VWS V14.00,2013-03-07 14:31:00,
2013-03-07 09:39:00,41.5,31.7,30.25,NNE,33,0.0,0.0,68,0.00,,---,0.00,VWS V14.00,2013-03-07 14:39:00,
2013-03-07 09:44:00,41.9,31.0,30.25,NNE,26,2.0,6.0,65,0.00,,---,0.00,VWS V14.00,2013-03-07 14:44:00,
2013-03-07 09:49:00,42.1,30.8,30.25,NNE,29,2.0,6.0,64,0.00,,---,0.00,VWS V14.00,2013-03-07 14:49:00,
2013-03-07 09:54:00,42.4,30.3,30.24,ENE,64,2.0,6.0,62,0.00,,---,0.00,VWS V14.00,2013-03-07 14:54:00,
2013-03-07 09:59:00,42.7,30.6,30.24,ENE,57,3.0,5.0,62,0.00,,---,0.00,VWS V14.00,2013-03-07 14:59:00,
2013-03-07 10:04:00,42.7,30.2,30.23,ENE,62,1.0,6.0,61,0.00,,---,0.00,VWS V14.00,2013-03-07 15:04:00,
2013-03-07 10:09:00,42.8,30.3,30.24,ENE,62,0.0,6.0,61,0.00,,---,0.00,VWS V14.00,2013-03-07 15:09:00,
2013-03-07 10:14:00,43.3,30.8,30.24,ENE,61,0.0,6.0,61,0.00,,---,0.00,VWS V14.00,2013-03-07 15:14:00,
2013-03-07 10:19:00,43.9,30.9,30.24,NE,54,4.0,6.0,60,0.00,,---,0.00,VWS V14.00,2013-03-07 15:19:00,
2013-03-07 10:24:00,44.5,31.5,30.24,NE,49,3.0,6.0,60,0.00,,---,0.00,VWS V14.00,2013-03-07 15:24:00,
2013-03-07 10:29:00,45.0,31.1,30.24,North,9,0.0,3.0,58,0.00,,---,0.00,VWS V14.00,2013-03-07 15:29:00,
2013-03-07 10:34:00,45.4,31.1,30.23,North,5,1.0,3.0,57,0.00,,---,0.00,VWS V14.00,2013-03-07 15:34:00,
2013-03-07 10:39:00,46.0,31.2,30.23,North,5,0.0,3.0,56,0.00,,---,0.00,VWS V14.00,2013-03-07 15:39:00,
2013-03-07 10:44:00,46.5,31.2,30.23,North,5,1.0,4.0,55,0.00,,---,0.00,VWS V14.00,2013-03-07 15:44:00,
2013-03-07 10:49:00,46.3,30.6,30.23,NNE,14,1.0,4.0,54,0.00,,---,0.00,VWS V14.00,2013-03-07 15:49:00,
2013-03-07 10:54:00,46.5,31.2,30.23,NE,48,1.0,4.0,55,0.00,,---,0.00,VWS V14.00,2013-03-07 15:54:00,
2013-03-07 10:59:00,47.2,31.4,30.23,North,360,2.0,4.0,54,0.00,,---,0.00,VWS V14.00,2013-03-07 15:59:00,
2013-03-07 11:04:00,47.7,31.9,30.23,NW,317,4.0,6.0,54,0.00,,---,0.00,VWS V14.00,2013-03-07 16:04:00,
2013-03-07 11:09:00,47.9,31.1,30.23,NNE,13,5.0,7.0,52,0.00,,---,0.00,VWS V14.00,2013-03-07 16:09:00,
2013-03-07 11:14:00,47.5,31.7,30.23,North,9,0.0,7.0,54,0.00,,---,0.00,VWS V14.00,2013-03-07 16:14:00,
2013-03-07 11:19:00,47.6,31.3,30.23,North,10,5.0,7.0,53,0.00,,---,0.00,VWS V14.00,2013-03-07 16:19:00,
2013-03-07 11:24:00,47.8,31.5,30.23,North,9,0.0,7.0,53,0.00,,---,0.00,VWS V14.00,2013-03-07 16:24:00,
2013-03-07 11:29:00,48.4,32.5,30.23,North,360,1.0,3.0,54,0.00,,---,0.00,VWS V14.00,2013-03-07 16:29:00,
2013-03-07 11:34:00,49.1,31.3,30.23,NW,326,0.0,5.0,50,0.00,,---,0.00,VWS V14.00,2013-03-07 16:34:00,
2013-03-07 11:39:00,49.1,32.2,30.23,NNW,338,1.0,6.0,52,0.00,,---,0.00,VWS V14.00,2013-03-07 16:39:00,
2013-03-07 11:44:00,49.3,32.4,30.23,SW,225,6.0,6.0,52,0.00,,---,0.00,VWS V14.00,2013-03-07 16:44:00,
2013-03-07 11:49:00,49.7,32.3,30.22,North,355,0.0,6.0,51,0.00,,---,0.00,VWS V14.00,2013-03-07 16:49:00,
2013-03-07 11:54:00,50.1,32.2,30.22,NW,325,0.0,6.0,50,0.00,,---,0.00,VWS V14.00,2013-03-07 16:54:00,
2013-03-07 11:59:00,50.3,31.4,30.22,NW,325,1.0,8.0,48,0.00,,---,0.00,VWS V14.00,2013-03-07 16:59:00,
2013-03-07 12:04:00,50.7,32.2,30.22,WSW,250,5.0,8.0,49,0.00,,---,0.00,VWS V14.00,2013-03-07 17:04:00,
2013-03-07 12:09:00,51.2,32.2,30.22,NW,323,4.0,8.0,48,0.00,,---,0.00,VWS V14.00,2013-03-07 17:09:00,
2013-03-07 12:14:00,51.8,32.2,30.21,WSW,250,1.0,8.0,47,0.00,,---,0.00,VWS V14.00,2013-03-07 17:14:00,
2013-03-07 12:19:00,52.4,32.8,30.21,WSW,239,3.0,8.0,47,0.00,,---,0.00,VWS V14.00,2013-03-07 17:19:00,
2013-03-07 12:24:00,53.0,33.3,30.21,SW,226,1.0,8.0,47,0.00,,---,0.00,VWS V14.00,2013-03-07 17:24:00,
2013-03-07 12:29:00,53.5,32.7,30.21,WSW,248,1.0,6.0,45,0.00,,---,0.00,VWS V14.00,2013-03-07 17:29:00,
2013-03-07 12:34:00,53.7,32.3,30.20,NW,325,2.0,6.0,44,0.00,,---,0.00,VWS V14.00,2013-03-07 17:34:00,
2013-03-07 12:39:00,53.6,32.2,30.20,NW,319,2.0,9.0,44,0.00,,---,0.00,VWS V14.00,2013-03-07 17:39:00,
2013-03-07 12:44:00,53.8,33.0,30.20,West,261,3.0,9.0,45,0.00,,---,0.00,VWS V14.00,2013-03-07 17:44:00,
2013-03-07 12:49:00,54.0,32.0,30.20,WNW,298,1.0,9.0,43,0.00,,---,0.00,VWS V14.00,2013-03-07 17:49:00,
2013-03-07 12:54:00,54.0,32.6,30.19,SW,235,6.0,9.0,44,0.00,,---,0.00,VWS V14.00,2013-03-07 17:54:00,
2013-03-07 12:59:00,54.6,32.6,30.19,NNW,329,2.0,6.0,43,0.00,,---,0.00,VWS V14.00,2013-03-07 17:59:00,
2013-03-07 13:04:00,55.1,32.4,30.19,NNE,17,2.0,6.0,42,0.00,,---,0.00,VWS V14.00,2013-03-07 18:04:00,
2013-03-07 13:09:00,55.1,31.8,30.18,NE,36,4.0,6.0,41,0.00,,---,0.00,VWS V14.00,2013-03-07 18:09:00,
2013-03-07 13:15:00,55.1,32.4,30.18,NW,310,2.0,2.0,42,0.00,,---,0.00,VWS V14.00,2013-03-07 18:15:00,
2013-03-07 13:20:00,55.1,32.4,30.18,NNW,347,0.0,10.0,42,0.00,,---,0.00,VWS V14.00,2013-03-07 18:20:00,
2013-03-07 13:25:00,54.8,32.2,30.17,NNE,14,5.0,10.0,42,0.00,,---,0.00,VWS V14.00,2013-03-07 18:25:00,
2013-03-07 13:30:00,55.2,33.1,30.17,WSW,250,5.0,8.0,43,0.00,,---,0.00,VWS V14.00,2013-03-07 18:30:00,
2013-03-07 13:35:00,55.8,32.5,30.17,NNW,330,1.0,8.0,41,0.00,,---,0.00,VWS V14.00,2013-03-07 18:35:00,
2013-03-07 13:40:00,56.2,32.2,30.17,North,351,4.0,10.0,40,0.00,,---,0.00,VWS V14.00,2013-03-07 18:40:00,
2013-03-07 13:45:00,56.8,32.8,30.16,WSW,245,3.0,10.0,40,0.00,,---,0.00,VWS V14.00,2013-03-07 18:45:00,
2013-03-07 13:50:00,57.1,33.6,30.16,NW,319,0.0,10.0,41,0.00,,---,0.00,VWS V14.00,2013-03-07 18:50:00,
2013-03-07 13:55:00,56.9,33.5,30.16,NE,40,0.0,10.0,41,0.00,,---,0.00,VWS V14.00,2013-03-07 18:55:00,
2013-03-07 14:00:00,57.1,32.4,30.15,WSW,246,3.0,6.0,39,0.00,,---,0.00,VWS V14.00,2013-03-07 19:00:00,
2013-03-07 14:05:00,57.3,33.2,30.15,WSW,250,3.0,7.0,40,0.00,,---,0.00,VWS V14.00,2013-03-07 19:05:00,
2013-03-07 14:10:00,57.6,32.8,30.15,SW,236,0.0,7.0,39,0.00,,---,0.00,VWS V14.00,2013-03-07 19:10:00,
2013-03-07 14:15:00,57.6,32.2,30.15,North,351,0.0,7.0,38,0.00,,---,0.00,VWS V14.00,2013-03-07 19:15:00,
2013-03-07 14:20:00,57.9,33.1,30.15,NNW,337,0.0,7.0,39,0.00,,---,0.00,VWS V14.00,2013-03-07 19:20:00,
2013-03-07 14:25:00,58.0,33.2,30.15,North,11,1.0,7.0,39,0.00,,---,0.00,VWS V14.00,2013-03-07 19:25:00,
2013-03-07 14:30:00,57.8,32.4,30.15,North,351,1.0,5.0,38,0.00,,---,0.00,VWS V14.00,2013-03-07 19:30:00,
2013-03-07 14:35:00,57.6,32.8,30.15,North,5,4.0,8.0,39,0.00,,---,0.00,VWS V14.00,2013-03-07 19:35:00,
2013-03-07 14:40:00,57.5,32.1,30.15,NNW,334,0.0,8.0,38,0.00,,---,0.00,VWS V14.00,2013-03-07 19:40:00,
2013-03-07 14:45:00,57.7,32.9,30.15,NW,308,4.0,8.0,39,0.00,,---,0.00,VWS V14.00,2013-03-07 19:45:00,
2013-03-07 14:50:00,58.2,33.4,30.15,WSW,247,1.0,8.0,39,0.00,,---,0.00,VWS V14.00,2013-03-07 19:50:00,
2013-03-07 14:55:00,58.6,33.1,30.14,WSW,254,1.0,8.0,38,0.00,,---,0.00,VWS V14.00,2013-03-07 19:55:00,
2013-03-07 15:00:00,58.6,32.4,30.14,NNE,19,4.0,7.0,37,0.00,,---,0.00,VWS V14.00,2013-03-07 20:00:00,
2013-03-07 15:05:00,58.3,32.2,30.14,North,355,5.0,8.0,37,0.00,,---,0.00,VWS V14.00,2013-03-07 20:05:00,
2013-03-07 15:10:00,58.3,32.8,30.14,North,355,1.0,8.0,38,0.00,,---,0.00,VWS V14.00,2013-03-07 20:10:00,
2013-03-07 15:15:00,58.5,33.7,30.13,North,355,0.0,8.0,39,0.00,,---,0.00,VWS V14.00,2013-03-07 20:15:00,
2013-03-07 15:20:00,58.6,33.7,30.14,NW,317,4.0,8.0,39,0.00,,---,0.00,VWS V14.00,2013-03-07 20:20:00,
2013-03-07 15:25:00,59.1,33.5,30.14,West,261,2.0,8.0,38,0.00,,---,0.00,VWS V14.00,2013-03-07 20:25:00,
2013-03-07 15:30:00,59.6,33.3,30.13,WSW,257,3.0,6.0,37,0.00,,---,0.00,VWS V14.00,2013-03-07 20:30:00,
2013-03-07 15:35:00,60.0,33.7,30.14,West,264,3.0,6.0,37,0.00,,---,0.00,VWS V14.00,2013-03-07 20:35:00,
2013-03-07 15:40:00,60.3,33.3,30.13,WSW,250,0.0,6.0,36,0.00,,---,0.00,VWS V14.00,2013-03-07 20:40:00,
2013-03-07 15:45:00,60.5,33.4,30.13,WSW,250,4.0,6.0,36,0.00,,---,0.00,VWS V14.00,2013-03-07 20:45:00,
2013-03-07 15:50:00,60.5,32.7,30.13,WNW,286,1.0,7.0,35,0.00,,---,0.00,VWS V14.00,2013-03-07 20:50:00,
2013-03-07 15:55:00,60.5,32.7,30.13,NW,323,0.0,11.0,35,0.00,,---,0.00,VWS V14.00,2013-03-07 20:55:00,
2013-03-07 16:00:00,60.4,33.3,30.13,NNW,347,2.0,7.0,36,0.00,,---,0.00,VWS V14.00,2013-03-07 21:00:00,
2013-03-07 16:05:00,60.4,33.3,30.13,NW,325,2.0,7.0,36,0.00,,---,0.00,VWS V14.00,2013-03-07 21:05:00,
2013-03-07 16:10:00,60.5,33.4,30.13,WSW,246,3.0,7.0,36,0.00,,---,0.00,VWS V14.00,2013-03-07 21:10:00,
2013-03-07 16:15:00,60.7,32.2,30.12,NW,323,2.0,8.0,34,0.00,,---,0.00,VWS V14.00,2013-03-07 21:15:00,
2013-03-07 16:20:00,60.7,32.9,30.12,NNW,328,1.0,8.0,35,0.00,,---,0.00,VWS V14.00,2013-03-07 21:20:00,
2013-03-07 16:25:00,60.6,33.5,30.13,WSW,256,1.0,8.0,36,0.00,,---,0.00,VWS V14.00,2013-03-07 21:25:00,
2013-03-07 16:30:00,60.5,33.4,30.13,NNW,331,0.0,6.0,36,0.00,,---,0.00,VWS V14.00,2013-03-07 21:30:00,
2013-03-07 16:35:00,60.3,33.9,30.13,NNW,340,0.0,6.0,37,0.00,,---,0.00,VWS V14.00,2013-03-07 21:35:00,
2013-03-07 16:40:00,60.1,33.1,30.13,North,350,0.0,6.0,36,0.00,,---,0.00,VWS V14.00,2013-03-07 21:40:00,
2013-03-07 16:45:00,60.2,33.8,30.13,North,5,6.0,6.0,37,0.00,,---,0.00,VWS V14.00,2013-03-07 21:45:00,
2013-03-07 16:50:00,60.0,33.0,30.13,NW,312,0.0,7.0,36,0.00,,---,0.00,VWS V14.00,2013-03-07 21:50:00,
2013-03-07 16:55:00,60.0,33.7,30.13,NW,314,2.0,7.0,37,0.00,,---,0.00,VWS V14.00,2013-03-07 21:55:00,
2013-03-07 17:00:00,60.2,33.8,30.13,NW,304,4.0,7.0,37,0.00,,---,0.00,VWS V14.00,2013-03-07 22:00:00,
2013-03-07 17:05:00,60.1,33.1,30.14,NW,313,1.0,7.0,36,0.00,,---,0.00,VWS V14.00,2013-03-07 22:05:00,
2013-03-07 17:10:00,59.9,32.9,30.13,WSW,257,2.0,7.0,36,0.00,,---,0.00,VWS V14.00,2013-03-07 22:10:00,
2013-03-07 17:15:00,59.7,33.4,30.13,West,279,0.0,7.0,37,0.00,,---,0.00,VWS V14.00,2013-03-07 22:15:00,
2013-03-07 17:20:00,59.5,33.2,30.13,NW,305,0.0,7.0,37,0.00,,---,0.00,VWS V14.00,2013-03-07 22:20:00,
2013-03-07 17:25:00,59.3,33.0,30.13,NW,306,2.0,7.0,37,0.00,,---,0.00,VWS V14.00,2013-03-07 22:25:00,
2013-03-07 17:30:00,59.1,32.2,30.13,NW,307,0.0,5.0,36,0.00,,---,0.00,VWS V14.00,2013-03-07 22:30:00,
2013-03-07 17:35:00,59.0,32.1,30.14,NW,306,1.0,5.0,36,0.00,,---,0.00,VWS V14.00,2013-03-07 22:35:00,
2013-03-07 17:40:00,58.8,32.6,30.13,NW,307,0.0,5.0,37,0.00,,---,0.00,VWS V14.00,2013-03-07 22:40:00,
2013-03-07 17:45:00,58.6,33.1,30.14,NW,307,0.0,5.0,38,0.00,,---,0.00,VWS V14.00,2013-03-07 22:45:00,
2013-03-07 17:50:00,58.5,33.0,30.14,NW,310,1.0,6.0,38,0.00,,---,0.00,VWS V14.00,2013-03-07 22:50:00,
2013-03-07 17:55:00,58.3,33.5,30.14,NW,310,0.0,6.0,39,0.00,,---,0.00,VWS V14.00,2013-03-07 22:55:00,
2013-03-07 18:00:00,58.1,33.3,30.14,NW,309,0.0,1.0,39,0.00,,---,0.00,VWS V14.00,2013-03-07 23:00:00,
2013-03-07 18:05:00,58.0,34.5,30.14,NW,310,1.0,2.0,41,0.00,,---,0.00,VWS V14.00,2013-03-07 23:05:00,
2013-03-07 18:10:00,57.7,34.2,30.14,NW,310,0.0,2.0,41,0.00,,---,0.00,VWS V14.00,2013-03-07 23:10:00,
2013-03-07 18:15:00,57.4,34.5,30.14,NW,310,0.0,2.0,42,0.00,,---,0.00,VWS V14.00,2013-03-07 23:15:00,
2013-03-07 18:20:00,57.0,34.8,30.14,NW,310,0.0,2.0,43,0.00,,---,0.00,VWS V14.00,2013-03-07 23:20:00,
2013-03-07 18:25:00,56.5,34.9,30.15,NW,310,0.0,2.0,44,0.00,,---,0.00,VWS V14.00,2013-03-07 23:25:00,
2013-03-07 18:30:00,56.0,35.0,30.15,NW,310,0.0,0.0,45,0.00,,---,0.00,VWS V14.00,2013-03-07 23:30:00,
2013-03-07 18:35:00,55.5,35.1,30.15,NW,310,0.0,0.0,46,0.00,,---,0.00,VWS V14.00,2013-03-07 23:35:00,
2013-03-07 18:40:00,55.0,35.7,30.15,NW,309,0.0,0.0,48,0.00,,---,0.00,VWS V14.00,2013-03-07 23:40:00,
2013-03-07 18:45:00,54.3,35.6,30.15,NW,309,0.0,0.0,49,0.00,,---,0.00,VWS V14.00,2013-03-07 23:45:00,
2013-03-07 18:50:00,53.8,35.6,30.16,NW,310,0.0,0.0,50,0.00,,---,0.00,VWS V14.00,2013-03-07 23:50:00,
2013-03-07 18:55:00,53.2,35.6,30.16,NW,309,0.0,0.0,51,0.00,,---,0.00,VWS V14.00,2013-03-07 23:55:00,
2013-03-07 19:00:00,52.6,36.0,30.16,NW,310,0.0,0.0,53,0.00,,---,0.00,VWS V14.00,2013-03-08 00:00:00,
2013-03-07 19:05:00,52.0,35.9,30.16,NW,310,0.0,0.0,54,0.00,,---,0.00,VWS V14.00,2013-03-08 00:05:00,
2013-03-07 19:10:00,51.4,35.8,30.16,NW,310,0.0,0.0,55,0.00,,---,0.00,VWS V14.00,2013-03-08 00:10:00,
2013-03-07 19:15:00,50.9,35.3,30.16,NW,309,0.0,0.0,55,0.00,,---,0.00,VWS V14.00,2013-03-08 00:15:00,
2013-03-07 19:20:00,50.4,35.3,30.17,NW,310,0.0,0.0,56,0.00,,---,0.00,VWS V14.00,2013-03-08 00:20:00,
2013-03-07 19:25:00,49.9,35.3,30.16,NW,309,0.0,0.0,57,0.00,,---,0.00,VWS V14.00,2013-03-08 00:25:00,
2013-03-07 19:30:00,49.4,35.7,30.17,NW,310,0.0,0.0,59,0.00,,---,0.00,VWS V14.00,2013-03-08 00:30:00,
2013-03-07 19:35:00,49.0,36.6,30.17,NW,310,0.0,0.0,62,0.00,,---,0.00,VWS V14.00,2013-03-08 00:35:00,
2013-03-07 19:41:00,48.6,36.2,30.17,NW,310,0.0,0.0,62,0.00,,---,0.00,VWS V14.00,2013-03-08 00:41:00,
2013-03-07 19:46:00,48.3,35.9,30.17,NW,310,0.0,0.0,62,0.00,,---,0.00,VWS V14.00,2013-03-08 00:46:00,
2013-03-07 19:51:00,48.0,35.6,30.17,NW,310,0.0,0.0,62,0.00,,---,0.00,VWS V14.00,2013-03-08 00:51:00,
2013-03-07 19:56:00,47.7,35.7,30.17,NW,310,0.0,0.0,63,0.00,,---,0.00,VWS V14.00,2013-03-08 00:56:00,
2013-03-07 20:01:00,47.4,35.5,30.17,NW,310,0.0,0.0,63,0.00,,---,0.00,VWS V14.00,2013-03-08 01:01:00,
2013-03-07 20:06:00,47.1,35.6,30.17,NW,310,0.0,0.0,64,0.00,,---,0.00,VWS V14.00,2013-03-08 01:06:00,
2013-03-07 20:11:00,46.9,35.8,30.17,NW,310,0.0,0.0,65,0.00,,---,0.00,VWS V14.00,2013-03-08 01:11:00,
2013-03-07 20:16:00,46.6,35.9,30.17,NW,310,0.0,0.0,66,0.00,,---,0.00,VWS V14.00,2013-03-08 01:16:00,
2013-03-07 20:21:00,46.4,35.3,30.17,NW,310,0.0,0.0,65,0.00,,---,0.00,VWS V14.00,2013-03-08 01:21:00,
2013-03-07 20:26:00,46.1,35.4,30.17,NW,310,0.0,0.0,66,0.00,,---,0.00,VWS V14.00,2013-03-08 01:26:00,
2013-03-07 20:31:00,45.9,35.2,30.17,NW,310,0.0,0.0,66,0.00,,---,0.00,VWS V14.00,2013-03-08 01:31:00,
2013-03-07 20:36:00,45.7,35.0,30.17,NW,310,0.0,0.0,66,0.00,,---,0.00,VWS V14.00,2013-03-08 01:36:00,
2013-03-07 20:41:00,45.6,35.3,30.17,NW,310,0.0,0.0,67,0.00,,---,0.00,VWS V14.00,2013-03-08 01:41:00,
2013-03-07 20:46:00,45.4,35.1,30.17,NW,310,0.0,0.0,67,0.00,,---,0.00,VWS V14.00,2013-03-08 01:46:00,
2013-03-07 20:51:00,45.1,34.8,30.17,NW,310,0.0,0.0,67,0.00,,---,0.00,VWS V14.00,2013-03-08 01:51:00,
2013-03-07 20:56:00,44.8,34.9,30.17,NW,309,0.0,0.0,68,0.00,,---,0.00,VWS V14.00,2013-03-08 01:56:00,
2013-03-07 21:01:00,44.6,34.7,30.17,NW,310,0.0,0.0,68,0.00,,---,0.00,VWS V14.00,2013-03-08 02:01:00,
2013-03-07 21:06:00,44.3,34.8,30.18,NW,310,0.0,0.0,69,0.00,,---,0.00,VWS V14.00,2013-03-08 02:06:00,
2013-03-07 21:11:00,44.1,34.6,30.17,NW,310,0.0,0.0,69,0.00,,---,0.00,VWS V14.00,2013-03-08 02:11:00,
2013-03-07 21:16:00,43.9,34.4,30.17,NW,310,0.0,0.0,69,0.00,,---,0.00,VWS V14.00,2013-03-08 02:16:00,
2013-03-07 21:21:00,43.8,34.3,30.17,NW,310,0.0,0.0,69,0.00,,---,0.00,VWS V14.00,2013-03-08 02:21:00,
2013-03-07 21:26:00,43.5,34.4,30.17,NW,310,0.0,0.0,70,0.00,,---,0.00,VWS V14.00,2013-03-08 02:26:00,
2013-03-07 21:31:00,43.3,34.2,30.17,NW,310,0.0,0.0,70,0.00,,---,0.00,VWS V14.00,2013-03-08 02:31:00,
2013-03-07 21:36:00,43.1,34.3,30.18,NW,310,0.0,0.0,71,0.00,,---,0.00,VWS V14.00,2013-03-08 02:36:00,
2013-03-07 21:41:00,42.8,34.1,30.18,NW,309,0.0,0.0,71,0.00,,---,0.00,VWS V14.00,2013-03-08 02:41:00,
2013-03-07 21:46:00,42.6,34.2,30.18,NW,310,0.0,0.0,72,0.00,,---,0.00,VWS V14.00,2013-03-08 02:46:00,
2013-03-07 21:51:00,42.4,34.0,30.18,NW,310,0.0,0.0,72,0.00,,---,0.00,VWS V14.00,2013-03-08 02:51:00,
2013-03-07 21:56:00,42.2,33.8,30.18,NW,309,0.0,0.0,72,0.00,,---,0.00,VWS V14.00,2013-03-08 02:56:00,
2013-03-07 22:01:00,42.0,34.0,30.18,NW,309,0.0,0.0,73,0.00,,---,0.00,VWS V14.00,2013-03-08 03:01:00,
2013-03-07 22:06:00,41.7,33.7,30.18,NW,310,0.0,0.0,73,0.00,,---,0.00,VWS V14.00,2013-03-08 03:06:00,
2013-03-07 22:11:00,41.5,33.5,30.18,NW,309,0.0,0.0,73,0.00,,---,0.00,VWS V14.00,2013-03-08 03:11:00,
2013-03-07 22:16:00,41.4,33.4,30.18,NW,309,0.0,0.0,73,0.00,,---,0.00,VWS V14.00,2013-03-08 03:16:00,
2013-03-07 22:21:00,41.2,33.2,30.18,NW,310,0.0,0.0,73,0.00,,---,0.00,VWS V14.00,2013-03-08 03:21:00,
2013-03-07 22:26:00,40.9,33.3,30.18,NW,310,0.0,0.0,74,0.00,,---,0.00,VWS V14.00,2013-03-08 03:26:00,
2013-03-07 22:31:00,40.7,33.4,30.18,NW,310,0.0,0.0,75,0.00,,---,0.00,VWS V14.00,2013-03-08 03:31:00,
2013-03-07 22:36:00,40.4,33.5,30.18,NW,310,0.0,0.0,76,0.00,,---,0.00,VWS V14.00,2013-03-08 03:36:00,
2013-03-07 22:41:00,40.2,33.2,30.18,NW,310,0.0,0.0,76,0.00,,---,0.00,VWS V14.00,2013-03-08 03:41:00,
2013-03-07 22:46:00,39.9,33.3,30.19,NW,310,0.0,0.0,77,0.00,,---,0.00,VWS V14.00,2013-03-08 03:46:00,
2013-03-07 22:51:00,39.7,33.4,30.19,NW,310,0.0,0.0,78,0.00,,---,0.00,VWS V14.00,2013-03-08 03:51:00,
2013-03-07 22:56:00,39.4,33.1,30.19,NW,309,0.0,0.0,78,0.00,,---,0.00,VWS V14.00,2013-03-08 03:56:00,
2013-03-07 23:01:00,39.2,33.2,30.18,NW,309,0.0,0.0,79,0.00,,---,0.00,VWS V14.00,2013-03-08 04:01:00,
2013-03-07 23:06:00,39.0,33.0,30.18,NW,310,0.0,0.0,79,0.00,,---,0.00,VWS V14.00,2013-03-08 04:06:00,
2013-03-07 23:11:00,38.8,32.9,30.18,NW,310,0.0,0.0,79,0.00,,---,0.00,VWS V14.00,2013-03-08 04:11:00,
2013-03-07 23:16:00,38.6,32.7,30.18,NW,309,0.0,0.0,79,0.00,,---,0.00,VWS V14.00,2013-03-08 04:16:00,
2013-03-07 23:21:00,38.4,32.8,30.18,NW,310,0.0,0.0,80,0.00,,---,0.00,VWS V14.00,2013-03-08 04:21:00,
2013-03-07 23:26:00,38.4,33.1,30.18,NW,309,0.0,0.0,81,0.00,,---,0.00,VWS V14.00,2013-03-08 04:26:00,
2013-03-07 23:31:00,38.6,33.3,30.19,NW,310,0.0,0.0,81,0.00,,---,0.00,VWS V14.00,2013-03-08 04:31:00,
2013-03-07 23:36:00,38.8,33.2,30.19,NW,309,0.0,0.0,80,0.00,,---,0.00,VWS V14.00,2013-03-08 04:36:00,
2013-03-07 23:41:00,38.8,33.2,30.19,NW,310,0.0,0.0,80,0.00,,---,0.00,VWS V14.00,2013-03-08 04:41:00,
2013-03-07 23:46:00,38.7,33.1,30.19,NW,310,0.0,0.0,80,0.00,,---,0.00,VWS V14.00,2013-03-08 04:46:00,
2013-03-07 23:51:00,38.6,33.0,30.18,NW,310,0.0,0.0,80,0.00,,---,0.00,VWS V14.00,2013-03-08 04:51:00,
2013-03-07 23:56:00,38.4,32.8,30.18,NW,309,0.0,0.0,80,0.00,,---,0.00,VWS V14.00,2013-03-08 04:56:00,